Weather in Gudermes

Russia / Chechen Republic     43°21′06″N   46°06′12″E
temp.,
°C
wind,
m/s
gust,
m/s
humid.,
%
clouds,
%
prec.,
mm/h
press.,
hPa
HPBL,
m
14 may, fri
fri1400:00+14ese118839 0.0 101416
03:00+14ese11881 0.0 101311
06:00+16ese01815 0.0 101450
09:00+22nne22634 0.0 1013373
12:00+26ne33520 0.0 1012655
15:00+30ne23411 0.0 1011922
18:00+26s116225 0.0 101035
21:00+18sse226084 0.0 101123
15 may, sat
sat1500:00+17ssw11540 0.0 101111
03:00+16ssw22580 0.0 101111
06:00+19ssw11620 0.0 101223
09:00+25nw11470 0.0 1013415
12:00+28ene22410 0.0 1012925
15:00+29ne33390 0.0 10111039
18:00+25nne2254100 0.0 101153
21:00+20s1161100 0.0 101212
16 may, sun
sun1600:00+19s117072 0.0 101113
03:00+17se117218 0.0 101011
06:00+19sw01705 0.0 101046
09:00+24nne21553 0.0 1010452
12:00+28ne34460 0.0 1008806
15:00+31ene44350 0.0 1005962
18:00+26ene23550 0.0 100488
21:00+21ssw22625 0.0 100614
17 may, mon
mon1700:00+18s22524 0.0 100615
03:00+17s22375 0.0 100514
06:00+19sse11488 0.0 100622
09:00+25ne22465 0.0 1005385
12:00+29ne333796 0.0 1005681
15:00+30ne43360 0.0 1004673
18:00+25n125941 0.0 100459
21:00+19wsw236142 0.0 100746
18 may, tue
tue1800:00+19wsw377182 0.0 1008168
03:00+19sw227898 0.0 100841
06:00+20wsw497779 0.0 1009545
09:00+23w676076 0.0 10101133
12:00+24wnw786099 0.1 10101455
15:00+20wsw6983100 2.8 1013706
18:00+18sw5891100 3.0 1014386
21:00+16ssw3487100 3.0 101577